RH
7 7 7 7 7 8 7 8 8 10 8 8 13 23 31 46 54 60 68 72 66 37 38 63 72 75 51 31 24 26 26 26 28 30 28 26 25 27 26 26 24 23 22 23 23 30 36 45 42
10 10 10 10 10 10 10 10 9 9 10 9 11 18 38 51 61 63 70 60 46 30 34 36 51 68 56 27 26 25 25 27 28 27 27 30 34 38 41 38 35 34 36 39 40 38 32 32 33
12 12 12 12 12 12 12 11 11 10 10 10 13 13 25 44 54 69 62 39 24 28 33 46 58 72 44 32 27 28 29 30 30 33 38 47 50 50 50 47 44 46 44 48 45 48 50 40 34
14 15 16 14 13 13 13 13 12 11 10 11 12 12 29 51 60 46 42 30 27 32 32 46 57 56 36 34 35 34 34 37 40 46 50 51 50 50 51 50 47 45 43 42 42 45 41 46 49
15 14 14 15 15 14 13 14 13 11 10 11 12 12 15 29 40 50 41 32 21 28 39 49 52 45 40 39 39 39 42 47 52 50 47 45 46 48 47 42 38 37 38 40 41 40 39 42 41
15 14 14 15 15 15 14 14 14 13 10 10 11 11 18 29 41 38 28 26 26 38 53 60 55 60 55 47 46 48 51 54 52 49 45 40 36 35 34 31 29 28 26 24 24 25 24 23 22
17 15 15 15 15 15 14 15 13 12 11 10 10 10 17 26 27 33 22 22 28 37 46 40 40 49 51 52 55 55 55 53 48 45 37 30 29 26 24 22 21 20 19 18 17 16 16 15 15
18 16 14 13 14 15 14 13 12 12 11 10 9 12 21 23 22 20 37 30 36 24 23 26 29 38 51 55 59 58 51 35 34 40 29 25 25 24 24 23 22 21 20 19 18 18 17 16 16
17 16 14 13 13 13 13 13 11 9 8 8 9 11 18 17 22 24 21 20 18 19 20 20 19 21 29 42 51 51 35 26 25 27 25 24 21 21 22 21 20 16 13 12 12 11 11 11 10
14 15 14 14 14 13 12 10 8 7 8 10 14 20 22 19 19 23 26 16 16 17 16 16 16 17 21 24 33 33 26 24 23 22 20 20 20 19 17 15 12 11 11 11 11 11 11 11 10
12 13 13 13 13 11 10 9 10 17 21 23 22 23 22 20 22 20 18 18 15 14 14 14 14 15 16 18 21 24 23 22 20 18 18 19 18 15 12 11 12 12 12 12 12 12 12 11 10
12 13 14 13 11 9 11 16 24 31 36 35 32 30 26 21 25 24 19 16 13 12 14 14 13 14 15 16 17 18 18 17 17 17 20 18 13 11 12 13 13 15 14 14 13 12 11 10 10
19 13 25 28 10 11 14 15 21 28 30 43 46 37 31 26 26 26 18 13 11 11 15 17 16 16 15 14 14 15 16 19 22 22 16 12 11 10 11 11 14 18 17 16 16 14 13 12 11
12 15 19 14 8 9 13 18 23 27 39 52 51 45 41 34 29 22 14 11 9 10 16 18 18 18 20 25 27 28 27 22 18 14 12 10 10 10 10 12 18 19 20 21 20 19 17 14 13
21 21 8 8 10 21 28 31 34 40 46 48 51 50 43 33 28 18 13 10 11 19 32 36 34 35 37 38 34 28 23 21 20 17 15 13 14 15 15 17 20 21 23 24 25 24 23 19 18
42 29 12 10 19 34 38 36 41 43 43 44 49 49 39 34 26 16 11 11 21 40 44 59 60 56 52 48 44 38 32 28 25 23 23 23 22 19 17 18 19 21 22 24 26 25 24 23 22
56 53 25 15 32 30 35 36 39 40 44 51 50 49 42 36 24 19 13 14 27 35 70 66 62 63 55 49 47 44 41 39 36 33 31 30 27 22 19 20 22 25 26 25 22 20 19 17 16
70 33 34 14 28 22 31 32 37 40 43 52 50 45 44 34 27 22 16 18 39 72 68 66 59 56 58 60 57 52 48 44 42 39 36 33 29 30 30 30 27 25 22 21 19 17 14 11 10
69 23 14 17 15 17 29 31 40 42 44 47 49 46 41 34 27 19 28 60 75 73 72 66 60 53 53 57 59 57 52 48 42 38 35 34 35 33 29 25 23 22 21 18 15 13 10 6 4
53 35 25 16 22 22 28 35 38 34 42 47 49 47 42 29 24 26 70 81 77 71 66 59 55 51 50 53 52 53 48 42 39 39 40 37 32 28 26 25 23 21 17 12 10 7 5 6 7
43 33 22 26 43 29 33 35 38 35 40 48 48 47 37 33 33 50 68 68 76 76 66 59 55 50 53 55 55 51 48 47 47 42 38 35 33 32 29 25 20 15 10 5 4 5 17 30 9
53 48 46 46 46 45 53 36 40 39 36 38 48 46 36 37 44 52 60 74 82 72 65 62 56 57 59 60 60 57 56 55 52 48 44 42 38 32 26 19 11 7 4 6 8 17 44 47 34
57 76 72 72 66 63 57 46 27 37 30 31 40 49 49 49 55 63 71 85 85 76 71 63 63 65 67 70 65 64 64 60 53 49 48 41 34 25 17 8 5 6 8 15 23 37 57 73 69
81 81 74 69 69 52 53 59 29 34 40 43 44 48 50 56 67 80 94 90 92 83 75 70 71 72 75 68 64 64 69 62 53 54 44 36 25 17 8 6 11 12 17 38 54 59 72 77 65
94 97 90 90 82 47 59 67 40 43 44 50 55 65 75 93 99 99 97 99 97 89 78 80 82 79 73 65 69 82 74 59 58 47 36 24 16 8 9 17 17 20 23 34 61 71 77 74 72
97 98 97 99 87 73 81 54 47 53 55 58 64 77 85 99 100 100 99 98 98 95 87 87 86 77 74 89 95 74 66 63 51 38 23 16 8 13 21 29 28 38 52 49 67 79 79 81 78
88 81 91 100 91 85 72 52 51 52 56 62 72 80 84 92 100 100 98 98 98 98 97 96 94 92 98 99 72 73 68 54 39 24 17 10 8 22 32 39 52 62 52 44 72 76 80 85 84
94 100 99 96 93 82 54 50 46 48 49 61 79 86 93 96 99 100 99 99 99 96 100 98 100 100 94 87 77 76 57 40 24 17 11 8 16 29 43 53 54 39 27 19 30 84 89 88 91
99 97 96 95 98 93 81 58 55 64 71 86 98 87 89 88 80 93 99 100 99 100 100 100 96 91 93 82 86 61 40 22 18 11 9 22 30 45 63 59 38 23 15 10 9 67 75 92 92
94 99 98 97 94 95 95 70 78 98 100 99 94 88 87 82 92 100 100 100 100 100 97 100 97 93 84 94 67 41 20 17 13 11 22 34 36 68 81 53 41 25 24 9 8 13 24 90 99
Wind_Speed
15 16 18 21 23 22 21 21 21 18 17 16 16 18 21 18 19 24 25 28 27 29 25 25 20 11 15 19 18 17 19 20 19 20 21 22 23 23 23 24 23 24 24 24 24 24 23 23 23
16 18 20 23 25 24 25 23 21 20 19 18 18 20 21 22 24 26 30 31 28 26 24 28 24 15 15 18 19 20 20 21 22 22 22 22 23 24 23 23 23 24 24 25 25 26 24 24 24
18 19 22 24 26 24 27 27 26 23 21 20 22 22 22 24 27 30 30 29 24 20 23 23 23 16 19 20 20 19 21 22 23 23 22 22 23 23 23 23 24 24 24 25 25 25 24 24 26
20 21 24 25 28 26 27 28 27 26 25 23 23 23 22 25 29 30 31 28 24 23 22 22 22 23 24 22 19 19 21 22 22 23 22 22 22 22 22 22 23 23 24 24 24 23 23 22 23
23 24 26 26 27 30 31 26 27 28 27 27 25 23 24 28 30 30 28 29 25 26 24 23 23 25 25 22 21 22 22 22 21 21 21 21 20 20 20 21 22 22 22 23 23 23 23 23 21
26 26 26 28 29 30 33 30 30 29 29 27 27 27 25 23 25 26 28 26 24 26 26 27 27 25 24 24 23 23 22 21 21 20 19 19 19 19 20 22 23 24 24 23 23 24 24 25 24
29 30 29 30 32 31 33 33 34 31 30 29 27 26 24 22 24 24 25 24 25 27 28 29 30 27 25 25 24 22 20 19 20 19 19 20 22 23 24 26 27 28 28 28 28 28 28 28 29
32 31 30 31 35 32 36 35 35 32 29 29 26 26 25 24 24 23 24 24 27 28 29 29 30 29 27 25 23 21 20 19 19 19 21 25 26 29 30 31 31 32 32 32 32 31 31 31 32
36 33 30 32 34 36 35 36 35 31 29 27 29 29 27 26 26 24 24 25 25 26 26 26 27 26 26 25 24 22 21 20 20 23 28 31 32 32 33 33 33 32 32 33 34 35 35 35 35
38 34 32 34 34 36 34 35 33 30 28 28 32 31 31 31 30 30 29 28 27 25 25 26 27 27 25 24 23 22 23 24 27 31 33 34 35 34 34 34 34 35 36 37 38 38 39 38 38
38 33 34 33 33 33 34 34 30 28 26 29 34 32 34 33 28 28 29 28 28 26 25 27 27 26 26 25 24 25 27 30 34 36 37 38 38 37 36 36 38 40 42 44 45 46 46 45 44
39 36 34 33 34 35 35 33 33 31 29 32 32 33 33 31 30 29 29 29 27 25 26 29 29 29 29 29 29 31 34 37 39 40 40 39 39 39 40 42 45 47 48 50 50 50 50 50 50
42 37 35 40 36 34 34 35 37 35 36 32 31 31 31 31 30 30 28 27 27 27 27 29 31 32 33 34 36 38 40 42 42 42 42 43 44 45 46 49 52 53 53 53 53 54 55 55 56
38 37 37 39 35 34 35 38 40 40 38 31 32 32 31 30 29 28 28 27 27 27 29 31 33 34 35 37 38 40 41 42 43 45 46 48 50 52 53 56 58 59 60 61 61 62 62 63 63
36 41 37 35 34 35 36 42 39 38 35 32 32 31 30 29 28 27 28 27 27 27 29 31 32 34 35 38 41 41 43 44 46 48 50 52 55 57 59 61 62 64 65 66 68 69 69 69 69
41 42 35 31 36 36 39 37 37 37 35 32 32 31 29 27 26 27 29 29 28 27 28 31 34 35 39 42 43 45 47 50 52 54 56 57 59 61 63 65 67 69 71 72 73 74 75 77 78
45 47 37 37 39 41 41 39 38 38 35 34 34 33 32 28 28 30 30 30 29 29 31 34 37 40 43 45 46 49 51 53 56 59 60 63 65 67 68 70 73 75 73 73 74 76 76 77 76
40 41 43 41 38 44 44 39 37 38 35 35 36 35 32 29 31 31 30 30 29 30 34 36 39 42 46 47 49 51 53 56 60 62 64 64 67 69 71 72 72 74 75 76 78 79 80 83 85
42 43 42 35 39 45 45 43 36 36 37 35 33 34 34 32 32 30 28 30 30 34 38 41 43 45 46 47 49 52 54 57 60 62 64 66 67 68 70 72 73 74 74 76 78 80 84 84 85
39 39 39 36 37 45 44 44 42 39 34 34 35 34 33 34 32 31 31 32 34 37 42 45 45 46 48 50 52 52 54 57 60 62 63 64 65 66 69 70 72 72 73 76 80 83 81 75 75
39 39 37 39 37 45 45 47 44 42 39 36 34 33 31 30 35 34 36 38 39 41 44 46 48 51 51 52 53 52 55 58 59 61 63 64 65 66 67 68 67 69 73 75 77 69 59 59 50
44 39 38 40 42 45 46 52 44 43 42 40 35 33 31 33 34 36 40 42 43 44 47 48 50 51 52 54 53 53 54 57 61 62 62 62 62 63 64 65 66 69 68 63 62 58 57 46 43
49 42 44 45 47 48 49 52 47 43 43 38 32 31 32 35 36 38 43 46 46 48 49 50 50 52 53 53 53 53 56 62 64 64 61 60 61 62 63 63 64 61 55 58 55 53 46 44 40
47 47 48 49 49 54 50 48 47 46 38 37 37 35 35 37 39 43 47 48 48 50 51 51 52 53 52 53 54 55 59 65 65 59 58 59 60 61 62 59 54 50 51 44 41 40 41 38 37
49 50 48 48 51 52 49 48 44 47 42 39 38 37 36 39 43 46 47 47 48 49 51 53 52 51 52 53 55 57 63 64 59 56 56 57 59 58 53 50 48 47 50 45 36 33 34 34 33
47 48 49 51 51 49 48 48 44 43 42 42 42 41 42 45 47 49 48 50 49 48 53 51 49 50 52 54 55 62 63 58 54 54 54 55 54 50 44 45 45 43 44 43 35 30 31 30 29
45 49 49 49 49 49 49 47 43 42 41 42 43 45 47 49 48 50 49 49 48 48 48 45 47 50 53 53 62 60 53 52 52 52 53 53 49 43 39 40 39 36 33 35 34 32 28 26 24
46 44 48 51 52 54 50 48 45 44 41 42 43 45 49 50 50 49 49 47 43 42 41 44 46 51 55 58 56 50 50 49 50 50 51 49 43 37 34 34 31 28 28 30 32 30 27 22 20
37 45 54 53 57 57 55 48 48 49 50 49 47 46 49 53 51 49 42 40 38 37 38 44 50 53 56 50 47 48 46 46 47 49 47 42 37 32 30 30 26 27 27 28 28 29 32 23 21
47 41 41 43 53 57 57 52 52 51 47 49 52 54 52 49 44 41 37 35 36 40 45 49 53 50 45 44 47 44 44 45 46 46 43 39 34 29 26 26 23 25 24 25 26 26 28 30 23
Wind_Direction
296 298 296 294 291 295 296 298 301 292 294 298 295 289 289 292 295 298 301 307 307 314 305 299 303 258 255 270 281 293 295 295 297 297 299 298 296 295 291 290 290 290 288 287 285 285 285 290 292
289 291 291 291 291 296 295 293 287 292 292 295 292 290 285 288 286 288 298 307 308 310 302 302 298 291 267 266 277 285 286 290 296 296 294 294 293 292 293 293 293 291 289 288 288 287 287 289 288
290 290 289 289 288 293 292 292 295 290 287 288 286 287 279 281 288 292 294 304 311 309 304 303 292 274 271 272 276 281 285 290 291 291 291 290 288 290 292 293 294 292 290 290 290 291 291 289 290
285 284 285 287 289 288 288 290 293 290 284 284 281 286 283 282 282 290 295 303 303 307 304 297 289 281 278 279 285 288 286 284 285 287 289 288 289 289 291 292 292 294 294 294 294 293 292 293 292
285 284 283 283 283 287 287 286 284 283 283 280 281 283 273 277 285 288 289 293 306 308 305 295 282 279 282 283 286 284 284 287 288 287 286 288 288 289 289 292 295 297 295 294 293 295 297 297 295
283 283 280 281 279 281 285 287 280 277 278 281 283 284 283 286 288 293 292 299 304 303 296 293 288 281 282 286 287 289 292 291 288 288 288 289 289 288 288 288 289 289 289 290 291 291 292 292 293
282 281 278 278 277 277 279 282 280 279 282 285 285 289 289 286 284 288 288 287 288 290 292 295 293 289 287 289 291 291 289 284 283 283 282 284 284 282 282 282 282 283 284 284 285 285 286 287 288
277 276 276 275 275 274 278 278 278 280 283 285 289 288 286 292 293 290 281 284 287 292 296 298 298 298 295 292 293 293 291 289 284 278 282 286 286 286 286 285 286 287 285 285 285 283 282 281 280
279 276 273 270 273 276 276 277 277 279 281 286 287 286 288 287 288 291 290 287 291 298 299 298 298 297 297 297 296 295 292 291 289 286 288 291 292 292 293 293 293 292 292 293 292 292 290 288 287
275 273 271 268 271 272 273 273 273 277 281 282 282 285 286 286 284 288 288 287 287 289 294 295 295 294 295 294 292 289 288 288 289 291 292 294 295 294 292 290 289 289 290 290 288 285 284 284 284
272 268 266 268 268 266 264 267 271 272 276 279 280 284 283 285 287 286 286 287 286 287 289 290 291 292 292 293 290 288 287 289 292 294 297 296 294 292 290 290 291 290 288 287 286 285 283 282 281
271 265 264 267 265 262 262 262 263 269 274 273 276 277 279 284 285 288 290 290 289 286 288 290 294 294 294 293 292 290 289 290 292 293 292 290 289 288 289 289 290 290 289 287 285 282 280 278 279
265 263 271 271 261 258 259 262 264 270 274 274 273 274 276 279 282 285 286 285 282 284 288 293 295 294 293 292 292 292 293 294 294 294 293 294 293 292 290 290 292 292 291 289 287 285 282 278 276
261 263 264 264 259 262 263 264 267 272 272 272 271 272 274 274 276 280 282 280 279 285 290 290 289 290 292 293 293 293 293 293 293 293 293 293 293 293 290 290 291 292 292 291 288 286 282 278 277
266 268 261 257 257 259 266 267 274 271 267 266 265 267 268 270 272 276 278 280 281 282 285 288 289 290 292 294 294 294 294 294 293 292 291 290 290 290 289 289 290 290 290 289 287 285 281 277 274
268 266 262 256 254 260 263 268 270 268 270 269 267 267 268 268 269 268 268 269 271 275 285 289 291 295 296 294 294 293 293 293 292 291 291 290 291 290 290 289 289 289 289 288 286 284 282 280 279
264 262 263 253 253 256 263 267 270 268 269 267 262 260 261 264 261 260 262 263 267 278 284 286 290 293 292 292 291 291 290 289 288 288 290 292 292 292 291 290 290 291 293 292 290 288 287 285 282
260 254 249 249 253 261 266 270 271 270 269 265 265 267 265 263 259 260 261 264 269 278 282 286 290 289 291 292 290 290 289 289 290 291 291 291 293 293 293 295 296 296 295 294 293 293 291 290 287
248 250 249 252 253 258 266 272 269 263 261 263 267 268 265 262 261 263 262 266 273 279 285 286 289 291 291 291 290 289 289 290 290 291 293 295 296 298 299 297 296 297 299 298 297 297 296 295 290
255 255 258 254 252 257 264 269 268 261 262 261 259 262 267 266 266 261 261 270 277 282 286 291 291 291 292 291 290 291 291 291 292 294 295 298 300 300 301 303 304 306 305 303 303 302 299 296 292
261 254 254 259 256 259 264 265 266 266 261 260 262 264 264 268 257 257 267 275 280 286 287 288 290 290 291 292 292 293 293 291 295 300 304 306 308 309 309 308 308 307 306 306 304 302 302 301 294
261 259 255 256 259 261 267 267 264 264 265 261 262 264 259 253 253 263 271 278 281 284 286 287 288 291 291 291 293 293 295 302 307 310 310 311 311 312 311 310 309 308 309 307 307 306 306 302 298
255 254 256 255 256 258 258 263 266 263 266 272 273 266 264 264 267 272 276 277 282 284 286 286 287 288 289 292 295 301 305 309 310 310 312 313 313 313 311 310 311 311 311 311 305 302 305 307 305
253 255 252 253 256 258 260 262 264 267 270 268 264 262 263 267 270 270 273 278 281 281 283 286 285 287 289 294 300 304 304 307 308 311 313 313 313 312 312 314 313 312 314 311 307 306 307 304 303
253 254 255 254 253 261 262 259 270 270 268 269 271 272 272 269 272 275 275 278 279 281 282 283 283 287 293 297 300 301 303 307 308 311 311 312 313 314 315 314 313 314 316 316 317 314 313 309 311
257 261 261 258 260 263 262 263 263 265 268 269 270 271 272 276 278 277 277 277 277 277 278 281 284 290 294 296 298 302 304 305 308 309 310 312 316 315 312 313 316 317 317 324 322 322 318 317 320
251 254 259 261 262 261 262 264 267 266 267 269 272 274 276 277 278 278 275 276 276 271 277 285 288 289 290 296 301 302 304 305 307 308 310 313 313 310 310 314 315 318 324 333 335 335 323 320 327
245 252 254 254 255 258 260 263 266 268 269 269 270 271 274 276 280 280 280 279 275 274 277 283 284 288 293 298 297 302 303 304 306 309 312 314 310 305 308 316 316 324 331 335 342 345 333 325 333
246 246 247 252 253 255 260 263 266 268 269 272 272 270 275 279 280 280 277 277 274 277 275 275 286 290 294 294 300 300 302 305 308 311 312 311 308 302 308 313 314 325 333 336 342 345 353 341 338
235 241 252 257 256 256 260 264 265 266 267 268 272 273 273 276 276 274 271 269 273 273 277 281 286 290 295 298 298 300 305 308 311 312 310 309 305 301 303 304 310 320 334 338 347 348 352 360 350